This is the latest recevied weather packets stored in our database for station/object NO3U. If no packets are shown the sender has not sent any weather packets the latest 10 day(s).
| Time | Temp. | Humidity | Pressure | Rain* | Wind** | Luminosity | Snow |
|---|---|---|---|---|---|---|---|
| 1777562677 | 7.22° C | 89% | 1013.9 hPa | 0 mm | - | 74 W/m² | - |
| 1777562372 | 7.22° C | 88% | 1013.8 hPa | 0 mm | - | 94 W/m² | - |
| 1777562068 | 7.22° C | 89% | 1013.9 hPa | 0 mm | - | 158 W/m² | - |
| 1777561765 | 7.22° C | 91% | 1013.7 hPa | 0 mm | - | 124 W/m² | - |
| 1777561461 | 7.22° C | 92% | 1013.8 hPa | 0 mm | - | 107 W/m² | - |
| 1777561156 | 6.67° C | 91% | 1013.6 hPa | 0 mm | - | 164 W/m² | - |
| 1777560851 | 6.67° C | 93% | 1013.5 hPa | 0 mm | - | 173 W/m² | - |
| 1777560549 | 6.67° C | 92% | 1013.5 hPa | 0 mm | - | 100 W/m² | - |
| 1777560246 | 6.67° C | 92% | 1013.6 hPa | 0 mm | - | 96 W/m² | - |
| 1777559942 | 6.67° C | 92% | 1013.1 hPa | 0 mm | - | 143 W/m² | - |
| 1777559638 | 6.67° C | 94% | 1013.3 hPa | 0 mm | - | 160 W/m² | - |
| 1777559336 | 6.67° C | 93% | 1013.3 hPa | 0 mm | - | 128 W/m² | - |
| 1777559032 | 6.11° C | 94% | 1013.2 hPa | 0 mm | - | 124 W/m² | - |
| 1777558727 | 6.11° C | 95% | 1013 hPa | 0 mm | - | 90 W/m² | - |
| 1777558423 | 6.11° C | 96% | 1012.9 hPa | 0 mm | - | 57 W/m² | - |
| 1777558119 | 6.11° C | 96% | 1012.8 hPa | 0 mm | - | 66 W/m² | - |
| 1777557816 | 6.11° C | 96% | 1012.9 hPa | 0 mm | - | 53 W/m² | - |
| 1777557513 | 6.11° C | 97% | 1012.8 hPa | 0 mm | - | 51 W/m² | - |
| 1777557210 | 6.11° C | 96% | 1012.7 hPa | 0 mm | - | 53 W/m² | - |
| 1777556906 | 6.11° C | 96% | 1012.6 hPa | 0 mm | - | 44 W/m² | - |
| 1777556601 | 6.11° C | 96% | 1012.6 hPa | 0 mm | - | 61 W/m² | - |
| 1777556301 | 6.11° C | 95% | 1012.6 hPa | 0 mm | - | 58 W/m² | - |
| 1777555997 | 6.11° C | 96% | 1012.5 hPa | 0 mm | - | 43 W/m² | - |
| 1777555693 | 6.11° C | 96% | 1012.4 hPa | 0 mm | - | 46 W/m² | - |
| 1777555389 | 6.11° C | 96% | 1012.4 hPa | 0 mm | - | 51 W/m² | - |
* Rain latest hour (hover to see other rain measurements)
** Current wind speed in m/s (hover to see current wind gust speed)